Regional Weather Roundup
Issued by NWS

Home | Current Version | Previous Version | Text Only | Print | Product List | Glossary On
Versions: 1 2 3 4 5 6 7 8 9 10 11 12 13 14 15 16 17 18 19 20 21 22 23 24 25 26 27 28 29 30 31 32 33 34 35 36 37 38 39 40 41 42 43 44 45 46 47 48 49 50
000
ASUS46 KSTO 260015
RWRCA

NORTHERN AND CENTRAL CA REGIONAL WEATHER ROUNDUP
NATIONAL WEATHER SERVICE SACRAMENTO CA
500 PM PDT THU MAY 25 2017

NOTE: FAIR INDICATES FEW OR NO CLOUDS BELOW 12,000 FEET WITH NO
SIGNIFICANT WEATHER AND/OR OBSTRUCTIONS TO VISIBILITY.

CAZ001-003-260100-
NORTHWEST AREA

CITY           SKY/WX    TMP DP  RH WIND       PRES   REMARKS
UKIAH          SUNNY     73  52  47 S10G17    29.71S
$$

CAZ006-505>513-260100-
BAY AREA

CITY           SKY/WX    TMP DP  RH WIND       PRES   REMARKS
SANTA ROSA     PTSUNNY   63  49  60 S8        29.77F
SAN RAFAEL     N/A       60  MM  MM MISG
NAPA           SUNNY     66  50  56 S17G29    29.78F
CONCORD        SUNNY     68  49  50 SW21G26   29.77S
OAKLAND CITY   N/A      MM  MM  MM MISG
OAKLAND        MOSUNNY   65  51  60 SW24G30   29.79S
SAN FRAN CITY  N/A       61  MM  60 MISG
SAN FRAN ARPT  MOSUNNY   64  47  53 S16G31    29.79F
LIVERMORE      SUNNY     70  49  47 SW13      29.74S
HAYWARD        SUNNY     67  46  47 SW16G23   29.78S
REDWOOD CITY   N/A       65  MM  57 MISG
MOFFETT ARPT   SUNNY     68  49  50 S13G22    29.78S
SAN JOSE ARPT  MOSUNNY   66  50  56 S20G30    29.77F
$$
CAZ034-037-514>518-260100-
CENTRAL COAST

CITY           SKY/WX    TMP DP  RH WIND       PRES   REMARKS
WATSONVILLE    CLOUDY    58  52  80 SW10G18   29.83F
SALINAS        MOSUNNY   64  51  62 W17G28    29.80S
MONTEREY       SUNNY     63  51  65 SW18G28   29.80S
SAN LUIS OBISP CLOUDY    62  52  69 S12       29.85S
SANTA MARIA    MOSUNNY   67  52  58 SW16G22   29.82S
$$
CAZ015-016-260100-
NORTHERN SACRAMENTO VALLEY

CITY           SKY/WX    TMP DP  RH WIND       PRES   REMARKS
REDDING        LGT RAIN  79  49  34 S18G24    29.64S
OROVILLE       SUNNY     76  50  40 S18G25    29.71F
$$
CAZ016>018-260100-
SOUTHERN SACRAMENTO VALLEY

CITY           SKY/WX    TMP DP  RH WIND       PRES   REMARKS
AUBURN         SUNNY     70  48  46 S8        29.75F
BEALE AFB      SUNNY     74  51  44 S14       29.69F
LINCOLN        FAIR      73  46  38 S10       29.71S
SAC INTL ARPT  SUNNY     71  52  50 S15       29.71S
MATHER AIRPORT SUNNY     72  50  46 SW14      29.73F
DOWNTOWN SAC   N/A       72  MM  MM MISG
SAC EXEC ARPT  SUNNY     69  50  50 SW15G23   29.73F
VACAVILLE      SUNNY     68  50  52 SW17G26   29.74F
TRAVIS AFB     SUNNY     66  49  55 W21G28    29.73F
$$
CAZ019>021-260100-
SAN JOAQUIN VALLEY

CITY           SKY/WX    TMP DP  RH WIND       PRES   REMARKS
STOCKTON       SUNNY     77  52  41 W8        29.72S
MODESTO        SUNNY     79  50  36 VRB7      29.70F
MERCED         SUNNY     78  45  30 W8        29.71F
LEMOORE        MOSUNNY   81  42  25 W9        29.71F
FRESNO         MOSUNNY   79  45  29 CALM      29.71F
PORTERVILLE      N/A     79  46  31 W7        29.73F
BAKERSFIELD    SUNNY     80  48  32 NW14G22   29.71F
$$
CAZ011-012-071-260100-
NORTHERN MOUNTAINS

CITY           SKY/WX    TMP DP  RH WIND       PRES   REMARKS
YREKA          SUNNY     76  37  24 N21       29.68S
MOUNT SHASTA   SUNNY     73  45  36 VRB3      29.69S
ALTURAS        SUNNY     74  28  18 W14G29    29.68F
$$
CAZ011-012-071-260100-
SIERRA NEVADA MTNS

CITY           SKY/WX    TMP DP  RH WIND       PRES   REMARKS
BLUE CANYON    SUNNY     58  39  49 S10       29.86S
TRUCKEE        SUNNY     64  30  27 W13G21    29.83S
TAHOE VLY ARPT SUNNY     63  30  28 S13G21    29.82S
MAMMOTH LAKES  FAIR      67   8  10 W18G30    29.86F
$$



USA.gov is the U.S. government's official web portal to all federal, state and local government web resources and services.